Location: Anglesey
(53.1800°N, 4.2200°W)
Time: 13:03:04
(UTC+01:00)

ISS - Pass Details

Date: 09 October 2017
Orbit: 401 x 408 km, 51.6° (Epoch: 23 October)

Event Time Altitude Azimuth Distance (km) Brightness Sun altitude
Rises 20:54:54 0° 279° (W) 2,330 1.5 -21.6°
Reaches altitude 10° 20:57:14 10° 265° (W) 1,468 -0.1 -22.0°
Enters shadow 20:59:37 23° 220° (SW) 913 -1.9 -22.3°
